Regional Weather Roundup
Issued by NWS

Home | Current Version | Previous Version | Text Only | Print | Product List | Glossary Off
Versions: 1 2 3 4 5 6 7 8 9 10 11 12 13 14 15 16 17 18 19 20 21 22 23 24 25 26 27 28 29 30 31 32 33 34 35 36 37 38 39 40 41 42 43 44 45 46 47 48 49 50

000
ASUS45 KCYS 220910
RWRWY

WYOMING REGIONAL WEATHER ROUNDUP
NATIONAL WEATHER SERVICE CHEYENNE WY
300 AM MDT FRI AUG 22 2014

NOTE:  "FAIR" INDICATES FEW OR NO CLOUDS BELOW 12,000 FEET
WITH NO SIGNIFICANT WEATHER AND/OR OBSTRUCTIONS TO VISIBILITY.

WYZ001-221000-
YELLOWSTONE NATIONAL PARK

CITY           SKY/WX    TMP DP  RH WIND       PRES   REMARKS
LK YELLOWSTONE   N/A     43  42  97 CALM      30.26F
W YELLOWSTONE  NOT AVBL

$$
WYZ002>013-054>058-071-098>099-221000-
NORTHERN WYOMING

CITY           SKY/WX    TMP DP  RH WIND       PRES   REMARKS
JACKSON        CLOUDY    48  48 100 CALM      30.20S
CODY           CLOUDY    54  50  87 SE3       30.13S
GREYBULL       CLOUDY    58  50  75 NW5       30.07S
WORLAND        MOCLDY    53  46  77 SE3       30.09S
SHERIDAN       CLOUDY    59  54  83 CALM      30.11S
BUFFALO        CLOUDY    56  54  93 N5        30.16S
GILLETTE       CLOUDY    58  55  90 N6        30.11S
HULETT         CLOUDY    59  57  94 MISG      30.11
NEWCASTLE      FAIR      54  52  94 SW3       30.06

$$
WYZ014>020-022>026-101>103-221000-
CENTRAL WYOMING

CITY           SKY/WX    TMP DP  RH WIND       PRES   REMARKS
BIG PINEY      RAIN      48  44  86 N14       30.24R
PINEDALE       DRIZZLE   50  48  93 W10       30.26R
DUBOIS         PTSUNNY   45  41  87 NW5       30.22S
LANDER         MOCLDY    53  44  71 NW7       30.12R
RIVERTON       PTCLDY    54  47  77 NW14      30.12R
CASPER         PTCLDY    50  47  89 CALM      30.15S
DOUGLAS        PTCLDY    55  52  89 W6        30.15S

$$
WYZ021-027>030-104>119-221000-
SOUTHERN WYOMING

CITY           SKY/WX    TMP DP  RH WIND       PRES   REMARKS
EVANSTON       MOCLDY    52  46  80 N8        30.20F
KEMMERER       CLOUDY    52  45  76 N12       30.23S
FORT BRIDGER   PTSUNNY   49  45  84 W10       30.23R
ROCK SPRINGS   MOCLDY    56  39  53 S3        30.18F
DIXON          FAIR      51  45  80 E5        30.24S
RAWLINS        MOCLDY    48  42  80 S5        30.22S
SARATOGA       FAIR      52  45  76 MISG      30.25S
LARAMIE        CLOUDY    53  44  71 SE3       30.25S
CHEYENNE       CLOUDY    59  47  64 SW3       30.17F
TORRINGTON     MOCLDY    63  53  70 NW5       30.06R
PINE BLUFFS    CLOUDY    61  52  72 CALM      30.13F

$$



USA.gov is the U.S. government's official web portal to all federal, state and local government web resources and services.